map of RBA home
Great Circle Mapper logo
RBA - Airport
Location
City:  Rabat, Morocco
Name:Rabat-Salé
ICAO / IATA:GMME / RBA

Details
Type:Airport (Aerodrome, Airfield)
Use:Public/Civil, Military, International (customs port of entry)
Latitude:34°03'05"N (34.051467)
Longitude:6°45'05"W (-6.751518)
Datum:WGS 1984
Elevation:276 ft (84 m)
Variation:1.83°W (WMM2015 magnetic declination)
0.11° annual change
Runways:1
Longest:11483 × 148 ft (3500 × 45 m), paved

Time
Time Zone:UTC+0 (DST+1)
Local Time:

Weather
METAR:GMME 031130Z 31006KT 270V340 CAVOK 25/16 Q1018 NOSIG
TAF:GMME 031100Z 0312/0418 32008KT CAVOK
TEMPO 0400/0406 VRB02KT 5000 SCT013

Related Locations
Nearby:
Farthest:KAT: 12360 mi / 19891 km
Kaitaia, NZ

Find:

   beyond  
but within

Other Information
Maps:
NOTAMs:
Links:
Sources:

  
flag of Morocco   

Sectional Chart

Flight Planning
at skyvector.com

Satellite Image

Google Maps Satellite view

 

Copyright © 2004-2015 Karl L. Swartz. All rights reserved.
The Great Circle Mapper name and logo are trademarks of the Great Circle Mapper.
All other trademarks mentioned herein belong to their respective owners.
Please see credits for attibutions and further copyright information.

  Follow gcmap on Facebook Follow gcmap on Twitter Follow gcmap on Google+

hCard Microformat

Geo Microformat